Regional Weather Roundup
Issued by NWS

Home | Current Version | Previous Version | Text Only | Print | Product List | Glossary Off
Versions: 1 2 3 4 5 6 7 8 9 10 11 12 13 14 15 16 17 18 19 20 21 22 23 24 25 26 27 28 29 30 31 32 33 34 35 36 37 38 39 40 41 42 43 44 45 46 47 48 49

000
ASUS45 KBOU 310307
RWRCO

WEATHER ROUNDUP FOR COLORADO
NATIONAL WEATHER SERVICE DENVER/BOULDER CO
800 PM MST FRI JAN 30 2015

NOTE: "FAIR" INDICATES FEW OR NO CLOUDS BELOW 12000 FEET WITH NO
SIGNIFICANT WEATHER AND/OR OBSTRUCTIONS TO VISIBILITY.

COZ001>005-013-030-031-310400-
...NORTHWEST COLORADO...

CITY           SKY/WX    TMP DP  RH WIND       PRES   REMARKS
CRAIG          CLOUDY    34  31  88 CALM      30.00F
HAYDEN         CLOUDY    34  28  80 CALM      29.99F
MEEKER         LGT RAIN  35  33  92 CALM      29.98F VSB 3/4
MOUNT WERNER   NOT AVBL
STEAMBOAT SPGS CLOUDY    33  29  86 CALM      29.99F
WALDEN         CLOUDY    32  27  80 NE7       30.02F WCI  26
$$

COZ006>008-011-310400-
...WEST CENTRAL VALLEYS...

CITY           SKY/WX    TMP DP  RH WIND       PRES   REMARKS
GRAND JUNCTION LGT RAIN  39  38  96 E3        29.96F
MONTROSE       CLOUDY    39  37  92 CALM      29.99S
EAGLE          LGT SNOW  34  34 100 CALM      30.02F FOG
RIFLE          LGT RAIN  37  36  96 CALM      29.97F FOG
DELTA          LGT RAIN  42  41  97 CALM      29.97F
NUCLA          LGT RAIN  36  34  93 CALM      30.02S
$$

COZ017>023-064>068-310400-
...SOUTHWEST COLORADO...

CITY           SKY/WX    TMP DP  RH WIND       PRES   REMARKS
DURANGO        LGT RAIN  33  32  96 E5        30.02F WCI  29
CORTEZ         CLOUDY    37  34  89 SW10      29.98F
PAGOSA SPRINGS LGT SNOW  34  34 100 CALM      30.04F
TELLURIDE      CLOUDY    31  31 100 NW3       29.99F
WOLF CREEK PAS SNOW      23  23 100 SW13G21   30.11S VSB 1/4 WCI  11
$$

COZ009-010-012-014-032>034-037-058>063-310400-
...CENTRAL COLORADO...

CITY           SKY/WX    TMP DP  RH WIND       PRES   REMARKS
ASPEN          LGT SNOW  32  30  92 CALM      29.97F FOG
BUENA VISTA    CLOUDY    31  30  96 CALM      30.07F
COPPER MTN     LGT SNOW  27  21  80 SE8       30.07F WCI  18
BERTHOUD PASS  HAZE      14   9  79 E38       30.09F VSB<1/4 WCI  -9
COTTONWOOD PAS LGT SNOW  30  28  93 CALM      30.08F
GUNNISON       CLOUDY    34  28  80 N7        30.03F WCI  28
KREMMLING      FLURRIES  30  25  80 CALM      30.04F
LEADVILLE      LGT SNOW  24  24 100 S8        30.04F FOG     WCI  15
MONARCH PASS   CLOUDY    21  19  93 MISG      30.18F
SALIDA         CLOUDY    33  32  97 CALM      30.15S
SUNLIGHT       LGT SNOW  30  28  93 NE5         N/A  WCI  25
WILKERSON PASS LGT SNOW  21  19  93 E12G17    30.12F WCI   9
$$

COZ069>075-310400-
...SAN LUIS VALLEY/SANGRE DE CRISTO MOUNTAINS...

CITY           SKY/WX    TMP DP  RH WIND       PRES   REMARKS
ALAMOSA        LGT SNOW  30  29  96 SW3       30.06F FOG
LA VETA PASS   LGT SNOW  28  27  93 CALM      30.10S
SAGUACHE       CLOUDY    30  28  93 CALM      30.08F
$$

COZ035-036-038>040-310400-
...NORTHERN COLORADO FRONT RANGE...

CITY           SKY/WX    TMP DP  RH WIND       PRES   REMARKS
DENVER INTL AP CLOUDY    39  27  62 NW6       30.08S
DMNS CITY PARK   N/A     43  25  50 N2        30.08S
AURORA         CLOUDY    39  26  60 NW3       30.09S
FRONT RANGE AP NOT AVBL
ERIE MUNI ARPT CLOUDY    39  28  64 CALM      30.09S
BOULDER MUN AP CLOUDY    43  27  52 CALM      30.09S
CENTENNIAL     CLOUDY    40  26  57 NW5       30.09S
BROOMFIELD     CLOUDY    43  27  52 CALM      30.09S
FORT COLLINS   CLOUDY    39  27  60 NE6       30.10F
LONGMONT       CLOUDY    44  29  56 NW5       30.11S
$$

COZ041-046-047-076>085-087-088-310400-
...PIKES PEAK/PALMER DIVIDE AND SOUTHERN FOOTHILLS...

CITY           SKY/WX    TMP DP  RH WIND       PRES   REMARKS
COLO. SPRINGS  CLOUDY    40  28  62 N17G25    30.07F
A. F. ACADEMY  LGT RAIN  35  31  87 N12       30.08S WCI  27
ELLICOTT       CLOUDY   N/A N/A N/A CALM      30.05F
FALCON         CLOUDY    36  29  76 NW13G20   30.08F
FORT CARSON    CLOUDY    37  27  67 N6        30.05F
LIMON          CLOUDY    33  32  96 SE3       30.06F
MONUMENT HILL  CLOUDY    34  27  75 NW12      30.09R WCI  25
TRINIDAD       CLOUDY    35  30  82 W15       30.06F WCI  25
$$

COZ042>045-048>051-090-091-310400-
...NORTHEAST COLORADO...

CITY           SKY/WX    TMP DP  RH WIND       PRES   REMARKS
GREELEY ARPT   CLOUDY    37  25  60 N8        30.08R
AKRON          CLOUDY    36  29  75 NW6       30.04S
BURLINGTON     CLOUDY    33  31  92 S15       30.10F WCI  23
WRAY           CLOUDY    38  33  82 S12G17    30.09S
STERLING       CLOUDY    37  32  81 NE6       30.05F
HOLYOKE        NOT AVBL
FORT MORGAN    CLOUDY    37  28  70 N10       30.06S
$$

COZ086-089-092>099-310400-
...SOUTHEAST COLORADO...

CITY           SKY/WX    TMP DP  RH WIND       PRES   REMARKS
PUEBLO         CLOUDY    39  36  89 SE5       30.07S
LA JUNTA       CLOUDY    39  37  92 NE3       30.06F
LAMAR          LGT RAIN  37  35  92 S3        30.09S
SPRINGFIELD      N/A     33  32  96 S23G32    30.10S WCI  21
$$



USA.gov is the U.S. government's official web portal to all federal, state and local government web resources and services.